Sylvania, OH

6:27 AM EST on February 22, 2017 (GMT -0500)
Lambertville

Weather History for KDUH - December, 2012

Change the Weather History Date:

Tuesday, December 25, 2012

  Actual Average (KTOL) Record (KTOL)
Temperature  
Mean Temperature 28 °F -  
Max Temperature 32 °F 31 °F 63 °F (1982)
Min Temperature 24 °F 17 °F -13 °F (1983)
Degree Days  
Heating Degree Days 37    
Moisture  
Dew Point 24 °F    
Average Humidity 76    
Maximum Humidity 87    
Minimum Humidity 68    
Precipitation  
Precipitation 0.00 in - - ()
Sea Level Pressure  
Sea Level Pressure 30.19 in    
Wind  
Wind Speed 5 mph (North)    
Max Wind Speed 10 mph    
Max Gust Speed 18 mph    
Visibility 10 miles    
Events      
Averages and records for this station are not official NWS values.
T = Trace of Precipitation, MM = Missing Value Source: NWS Daily Summary

Daily Weather History Graph

Daily Weather History Graph

Search for Another Location

Airport or City:

Trip Planner

Search our weather history database for the weather conditions in past years. The results will help you decide how hot, cold, wet, or windy it might be!

Date:

Astronomy

Dec. 25, 2012 Rise Set
Actual Time 8:00 AM EST 5:09 PM EST
Civil Twilight 7:28 AM EST 5:41 PM EST
Nautical Twilight 6:53 AM EST 6:16 PM EST
Astronomical Twilight 6:19 AM EST 6:50 PM EST
Moon 3:17 PM EST (12/25) 5:31 AM EST (12/25)
Length of Visible Light 10h 12m
Length of Day
9h 09m
Waxing Gibbous, 93% of the Moon is Illuminated
Dec 25
Waxing Gibbous
Dec 28
Full
Jan 4
Last Quarter
Jan 11
New
Jan 18
First Quarter

Hourly Weather History & Observations

Time (EST) Temp. Windchill Dew Point Humidity Pressure Visibility Wind Dir Wind Speed Gust Speed Precip Events Conditions
12:15 AM 31.1 °F 26.4 °F 26.2 °F 82% 29.99 in 10.0 mi NNW 4.6 mph - N/A   Overcast
12:35 AM 31.1 °F 26.4 °F 26.2 °F 82% 30.00 in 10.0 mi NW 4.6 mph - N/A   Overcast
12:54 AM 30.9 °F 26.2 °F 25.7 °F 81% 30.01 in 10.0 mi NNW 4.6 mph - N/A   Overcast
1:15 AM 31.1 °F 27.7 °F 26.1 °F 82% 30.02 in 10.0 mi WNW 3.5 mph - N/A   Overcast
1:34 AM 30.6 °F 25.8 °F 26.1 °F 83% 30.02 in 10.0 mi NNW 4.6 mph - N/A   Overcast
1:54 AM 30.2 °F 24.3 °F 25.7 °F 83% 30.02 in 10.0 mi NW 5.8 mph - N/A   Overcast
2:15 AM 30.2 °F 25.4 °F 25.7 °F 83% 30.03 in 10.0 mi NNW 4.6 mph - N/A   Overcast
2:34 AM 30.2 °F 25.4 °F 25.7 °F 83% 30.04 in 10.0 mi NNW 4.6 mph - N/A   Overcast
2:55 AM 30.2 °F 25.4 °F 25.7 °F 83% 30.06 in 10.0 mi NNW 4.6 mph - N/A   Overcast
3:15 AM 30.0 °F 25.2 °F 25.5 °F 83% 30.06 in 10.0 mi NNW 4.6 mph - N/A   Overcast
3:34 AM 30.0 °F 25.2 °F 25.5 °F 83% 30.07 in 10.0 mi North 4.6 mph - N/A   Overcast
3:55 AM 29.5 °F 24.5 °F 24.8 °F 83% 30.08 in 10.0 mi North 4.6 mph - N/A   Overcast
4:14 AM 28.4 °F 23.3 °F 23.9 °F 83% 30.09 in 10.0 mi NNW 4.6 mph - N/A   Scattered Clouds
4:35 AM 28.0 °F 20.0 °F 23.9 °F 84% 30.10 in 10.0 mi NNW 8.1 mph - N/A   Mostly Cloudy
4:55 AM 28.2 °F 21.0 °F 23.7 °F 83% 30.12 in 10.0 mi NW 6.9 mph - N/A   Overcast
5:14 AM 27.7 °F 19.6 °F 23.4 °F 84% 30.13 in 10.0 mi NNW 8.1 mph 16.1 mph N/A   Mostly Cloudy
5:35 AM 27.3 °F - 23.0 °F 84% - 10.0 mi Calm Calm - N/A   Clear
5:55 AM 26.6 °F 22.6 °F 22.6 °F 85% 30.15 in 10.0 mi WNW 3.5 mph - N/A   Clear
6:15 AM 26.2 °F - 22.3 °F 85% 30.16 in 10.0 mi Calm Calm - N/A   Clear
6:35 AM 25.7 °F - 22.1 °F 86% 30.16 in 10.0 mi Calm Calm - N/A   Clear
6:54 AM 25.3 °F - 21.7 °F 86% 30.17 in 10.0 mi Calm Calm - N/A   Clear
7:15 AM 24.8 °F - 21.4 °F 87% 30.18 in 10.0 mi Calm Calm - N/A   Clear
7:34 AM 24.8 °F - 21.6 °F 87% 30.18 in 10.0 mi Calm Calm - N/A   Clear
7:55 AM 24.4 °F 20.1 °F 20.8 °F 86% 30.18 in 10.0 mi NNW 3.5 mph - N/A   Clear
8:15 AM 24.3 °F 19.9 °F 20.7 °F 86% 30.19 in 10.0 mi NNW 3.5 mph - N/A   Clear
8:34 AM 25.2 °F 20.9 °F 21.2 °F 85% 30.20 in 10.0 mi NNW 3.5 mph - N/A   Clear
8:55 AM 26.1 °F - 21.2 °F 82% 30.20 in 10.0 mi Calm Calm - N/A   Clear
9:15 AM 26.4 °F 22.4 °F 21.6 °F 82% 30.20 in 10.0 mi NNW 3.5 mph - N/A   Scattered Clouds
9:34 AM 27.9 °F 22.6 °F 22.1 °F 79% 30.21 in 10.0 mi NNW 4.6 mph - N/A   Clear
9:55 AM 29.3 °F 23.2 °F 22.1 °F 75% 30.21 in 10.0 mi North 5.8 mph - N/A   Clear
10:14 AM 30.6 °F 24.7 °F 22.5 °F 72% 30.22 in 10.0 mi North 5.8 mph - N/A   Clear
10:35 AM 31.5 °F 24.9 °F 22.8 °F 70% 30.22 in 10.0 mi NNE 6.9 mph - N/A   Clear
10:55 AM 31.5 °F 24.9 °F 22.6 °F 70% 30.23 in 10.0 mi NE 6.9 mph - N/A   Mostly Cloudy
11:14 AM 31.1 °F 25.4 °F 23.0 °F 72% 30.24 in 10.0 mi NNE 5.8 mph - N/A   Overcast
11:35 AM 31.3 °F 25.6 °F 23.2 °F 72% 30.25 in 10.0 mi NE 5.8 mph - N/A   Overcast
11:54 AM 31.6 °F 26.0 °F 23.5 °F 72% 30.25 in 10.0 mi NNE 5.8 mph - N/A   Overcast
12:15 PM 32.0 °F 27.5 °F 23.4 °F 70% 30.24 in 10.0 mi NNE 4.6 mph - N/A   Overcast
12:35 PM 32.0 °F 28.7 °F 23.4 °F 70% 30.24 in 10.0 mi ENE 3.5 mph - N/A   Overcast
12:54 PM 32.0 °F 26.4 °F 23.9 °F 72% 30.23 in 10.0 mi NNE 5.8 mph - N/A   Overcast
1:15 PM 32.0 °F 28.7 °F 24.4 °F 74% 30.25 in 10.0 mi NE 3.5 mph - N/A   Overcast
1:35 PM 32.0 °F 26.4 °F 24.6 °F 74% 30.24 in 10.0 mi NNE 5.8 mph - N/A   Overcast
1:55 PM 32.0 °F 24.8 °F 24.8 °F 75% 30.24 in 10.0 mi NNE 8.1 mph - N/A   Overcast
2:15 PM 32.4 °F 25.3 °F 24.8 °F 74% 30.23 in 10.0 mi NNE 8.1 mph - N/A   Overcast
2:34 PM 32.5 °F 29.3 °F 25.2 °F 74% 30.24 in 10.0 mi NNE 3.5 mph - N/A   Overcast
2:55 PM 32.9 °F 28.5 °F 25.3 °F 74% 30.24 in 10.0 mi NNE 4.6 mph - N/A   Overcast
3:15 PM 32.9 °F 28.5 °F 25.2 °F 73% 30.24 in 10.0 mi NNE 4.6 mph - N/A   Overcast
3:34 PM 32.9 °F 27.5 °F 25.3 °F 74% 30.24 in 10.0 mi North 5.8 mph - N/A   Overcast
3:55 PM 32.9 °F 25.9 °F 25.0 °F 73% 30.25 in 10.0 mi North 8.1 mph - N/A   Overcast
4:14 PM 32.5 °F 28.1 °F 24.4 °F 72% 30.25 in 10.0 mi NNE 4.6 mph - N/A   Overcast
4:35 PM 32.2 °F 25.8 °F 23.9 °F 72% 30.25 in 10.0 mi NNE 6.9 mph - N/A   Overcast
4:55 PM 32.0 °F 26.4 °F 23.7 °F 71% 30.25 in 10.0 mi NNE 5.8 mph - N/A   Overcast
5:14 PM 32.0 °F 25.6 °F 23.7 °F 71% 30.25 in 10.0 mi NNE 6.9 mph - N/A   Overcast
5:35 PM 32.0 °F 25.6 °F 23.2 °F 70% 30.25 in 10.0 mi NNE 6.9 mph - N/A   Overcast
5:55 PM 32.0 °F 27.5 °F 23.2 °F 70% 30.27 in 10.0 mi NNE 4.6 mph - N/A   Overcast
6:14 PM 32.0 °F 26.4 °F 23.0 °F 69% 30.26 in 10.0 mi NNE 5.8 mph - N/A   Overcast
6:35 PM 32.0 °F 27.5 °F 23.0 °F 69% 30.26 in 10.0 mi NNE 4.6 mph - N/A   Overcast
6:54 PM 32.0 °F 28.7 °F 22.8 °F 69% 30.27 in 10.0 mi NE 3.5 mph - N/A   Overcast
7:15 PM 32.0 °F 28.7 °F 22.8 °F 69% 30.27 in 10.0 mi NNE 3.5 mph - N/A   Overcast
7:35 PM 32.0 °F 26.4 °F 22.8 °F 69% 30.27 in 10.0 mi NNE 5.8 mph - N/A   Overcast
7:54 PM 32.0 °F 27.5 °F 22.6 °F 68% 30.27 in 10.0 mi NNE 4.6 mph - N/A   Overcast
8:15 PM 32.0 °F 27.5 °F 22.8 °F 69% 30.27 in 10.0 mi NNE 4.6 mph - N/A   Overcast
8:35 PM 31.8 °F 25.4 °F 22.5 °F 68% 30.27 in 10.0 mi NNE 6.9 mph - N/A   Overcast
8:55 PM 31.6 °F 26.0 °F 22.6 °F 69% 30.26 in 10.0 mi NNE 5.8 mph - N/A   Overcast
9:15 PM 31.8 °F 27.3 °F 23.0 °F 70% 30.25 in 10.0 mi NNE 4.6 mph - N/A   Overcast
9:34 PM 31.8 °F 24.6 °F 22.8 °F 69% 30.24 in 10.0 mi NE 8.1 mph - N/A   Overcast
9:55 PM 31.8 °F 23.9 °F 22.5 °F 68% 30.24 in 10.0 mi NNE 9.2 mph 18.4 mph N/A   Overcast
10:14 PM 31.6 °F 23.1 °F 22.5 °F 69% 30.23 in 10.0 mi NNE 10.4 mph - N/A   Overcast
10:34 PM 31.6 °F 25.1 °F 22.8 °F 70% 30.23 in 10.0 mi NE 6.9 mph - N/A   Overcast
10:55 PM 31.6 °F 24.4 °F 23.0 °F 70% 30.25 in 10.0 mi NE 8.1 mph - N/A   Overcast
11:14 PM 31.6 °F 28.3 °F 23.0 °F 70% 30.25 in 10.0 mi NE 3.5 mph - N/A   Overcast
11:35 PM 31.6 °F 25.1 °F 23.4 °F 71% 30.25 in 10.0 mi NE 6.9 mph - N/A   Overcast
11:55 PM 31.6 °F 23.1 °F 23.7 °F 73% 30.23 in 10.0 mi NE 10.4 mph - N/A   Overcast